Weather History for KASW - February, 2012

Change the Weather History Date:

Wednesday, February 15, 2012

  Actual Average Record
Temperature  
Mean Temperature 36 °F -  
Max Temperature 39 °F 36 °F 61 °F (1954)
Min Temperature 32 °F 20 °F -4 °F (1963)
Degree Days  
Heating Degree Days 30    
Moisture  
Dew Point 31 °F    
Average Humidity 88    
Maximum Humidity 93    
Minimum Humidity 75    
Precipitation  
Precipitation 0.03 in - - ()
Sea Level Pressure  
Sea Level Pressure 30.11 in    
Wind  
Wind Speed 5 mph (South)    
Max Wind Speed 9 mph    
Max Gust Speed -    
Visibility 9 miles    
Events Rain    
Averages and records for this station are not official NWS values.
T = Trace of Precipitation, MM = Missing Value Source: NWS Daily Summary

Daily Weather History Graph

Daily Weather History Graph

Search for Another Location

Airport or City:

Trip Planner

Search our weather history database for the weather conditions in past years. The results will help you decide how hot, cold, wet, or windy it might be!

Date:

Astronomy

Feb. 15, 2012 Rise Set
Actual Time 7:38 AM EST 6:16 PM EST
Civil Twilight 7:10 AM EST 6:45 PM EST
Nautical Twilight 6:38 AM EST 7:17 PM EST
Astronomical Twilight 6:06 AM EST 7:49 PM EST
Moon 2:33 AM EST (2/15) 12:09 PM EST (2/15)
Length of Visible Light 11h 34m
Length of Day
10h 38m
Last Quarter, 39% of the Moon is Illuminated
Feb 15
Last Quarter
Feb 21
New
Feb 29
First Quarter
Mar 8
Full
Mar 14
Last Quarter

Hourly Weather History & Observations

Time (EST) Temp. Windchill Dew Point Humidity Pressure Visibility Wind Dir Wind Speed Gust Speed Precip Events Conditions
12:15 AM 32.0 °F 28.7 °F 30.2 °F 93% 30.06 in 10.0 mi SSW 3.5 mph - N/A   Overcast
12:35 AM 32.0 °F 27.5 °F 30.2 °F 93% 30.06 in 10.0 mi South 4.6 mph - N/A   Overcast
12:55 AM 32.0 °F 27.5 °F 30.2 °F 93% 30.06 in 10.0 mi South 4.6 mph - N/A   Overcast
1:15 AM 32.0 °F 27.5 °F 30.2 °F 93% 30.07 in 10.0 mi SSW 4.6 mph - N/A   Overcast
1:35 AM 32.0 °F 27.5 °F 30.2 °F 93% 30.07 in 10.0 mi South 4.6 mph - N/A   Overcast
1:55 AM 32.0 °F 27.5 °F 30.2 °F 93% 30.07 in 10.0 mi SSW 4.6 mph - N/A   Overcast
2:15 AM 32.0 °F 27.5 °F 30.2 °F 93% 30.07 in 10.0 mi SSW 4.6 mph - N/A   Overcast
2:35 AM 32.0 °F 27.5 °F 30.2 °F 93% 30.07 in 10.0 mi SSW 4.6 mph - N/A   Overcast
2:55 AM 32.0 °F 28.7 °F 30.2 °F 93% 30.08 in 10.0 mi SSW 3.5 mph - N/A   Overcast
3:15 AM 32.0 °F 27.5 °F 30.2 °F 93% 30.09 in 10.0 mi SW 4.6 mph - N/A   Overcast
3:35 AM 32.0 °F 26.4 °F 30.2 °F 93% 30.09 in 10.0 mi SW 5.8 mph - N/A   Overcast
3:55 AM 32.0 °F 24.8 °F 30.2 °F 93% 30.10 in 10.0 mi WSW 8.1 mph - N/A   Overcast
4:15 AM 32.0 °F 26.4 °F 28.4 °F 87% 30.10 in 10.0 mi SW 5.8 mph - N/A   Overcast
4:35 AM 32.0 °F 26.4 °F 28.4 °F 87% 30.10 in 10.0 mi SSW 5.8 mph - N/A   Overcast
5:15 AM 32.0 °F 27.5 °F 28.4 °F 87% 30.12 in 10.0 mi SSW 4.6 mph - N/A   Overcast
5:35 AM 32.0 °F 27.5 °F 30.2 °F 93% 30.12 in 10.0 mi SSW 4.6 mph - N/A   Overcast
5:55 AM 32.0 °F 28.7 °F 30.2 °F 93% 30.13 in 10.0 mi SSW 3.5 mph - N/A   Overcast
6:15 AM 32.0 °F 27.5 °F 30.2 °F 93% 30.13 in 10.0 mi South 4.6 mph - N/A   Overcast
6:35 AM 32.0 °F 26.4 °F 30.2 °F 93% 30.13 in 10.0 mi SSW 5.8 mph - N/A   Overcast
6:55 AM 32.0 °F 28.7 °F 30.2 °F 93% 30.13 in 10.0 mi South 3.5 mph - N/A   Overcast
7:15 AM 32.0 °F 27.5 °F 30.2 °F 93% 30.14 in 10.0 mi South 4.6 mph - N/A   Overcast
7:35 AM 32.0 °F 25.6 °F 30.2 °F 93% 30.14 in 7.0 mi South 6.9 mph - N/A   Overcast
7:55 AM 32.0 °F 25.6 °F 30.2 °F 93% 30.15 in 7.0 mi South 6.9 mph - N/A   Overcast
8:15 AM 32.0 °F 28.7 °F 30.2 °F 93% 30.16 in 7.0 mi SSW 3.5 mph - N/A   Overcast
8:35 AM 33.8 °F 29.6 °F 30.2 °F 87% 30.17 in 7.0 mi SSW 4.6 mph - N/A   Overcast
8:55 AM 33.8 °F 28.6 °F 30.2 °F 87% 30.17 in 10.0 mi South 5.8 mph - N/A   Overcast
9:15 AM 33.8 °F 26.4 °F 30.2 °F 87% 30.17 in 10.0 mi South 9.2 mph - N/A   Overcast
9:35 AM 33.8 °F 30.8 °F 30.2 °F 87% 30.16 in 10.0 mi South 3.5 mph - N/A   Mostly Cloudy
9:55 AM 33.8 °F 30.8 °F 30.2 °F 87% 30.16 in 10.0 mi South 3.5 mph - N/A   Mostly Cloudy
10:15 AM 35.6 °F 29.2 °F 30.2 °F 81% 30.16 in 10.0 mi South 8.1 mph - N/A   Scattered Clouds
10:35 AM 35.6 °F 29.2 °F 30.2 °F 81% 30.17 in 10.0 mi SSW 8.1 mph - N/A   Scattered Clouds
10:55 AM 35.6 °F 30.7 °F 32.0 °F 87% 30.16 in 10.0 mi South 5.8 mph - N/A   Clear
11:15 AM 35.6 °F 30.7 °F 32.0 °F 87% 30.15 in 10.0 mi South 5.8 mph - N/A   Clear
11:35 AM 37.4 °F 33.8 °F 32.0 °F 81% 30.14 in 10.0 mi SSE 4.6 mph - N/A   Clear
11:55 AM 37.4 °F 31.4 °F 32.0 °F 81% 30.14 in 10.0 mi South 8.1 mph - N/A   Scattered Clouds
12:15 PM 37.4 °F 32.8 °F 32.0 °F 81% 30.13 in 10.0 mi SSW 5.8 mph - N/A   Scattered Clouds
12:35 PM 37.4 °F 33.8 °F 32.0 °F 81% 30.13 in 10.0 mi South 4.6 mph - N/A   Scattered Clouds
12:55 PM 37.4 °F 32.1 °F 32.0 °F 81% 30.13 in 10.0 mi South 6.9 mph - N/A   Scattered Clouds
1:15 PM 37.4 °F 31.4 °F 32.0 °F 81% 30.13 in 10.0 mi South 8.1 mph - N/A   Mostly Cloudy
1:35 PM 37.4 °F 32.1 °F 32.0 °F 81% 30.12 in 10.0 mi South 6.9 mph - N/A   Overcast
1:55 PM 37.4 °F 32.8 °F 32.0 °F 81% 30.12 in 10.0 mi South 5.8 mph - N/A   Mostly Cloudy
2:15 PM 37.4 °F 32.8 °F 32.0 °F 81% 30.12 in 10.0 mi South 5.8 mph - N/A   Mostly Cloudy
2:35 PM 39.2 °F 35.0 °F 32.0 °F 75% 30.12 in 10.0 mi South 5.8 mph - N/A   Scattered Clouds
3:15 PM 37.4 °F 34.9 °F 32.0 °F 81% 30.10 in 10.0 mi SSE 3.5 mph - N/A   Overcast
3:35 PM 39.2 °F 35.9 °F 32.0 °F 75% 30.10 in 10.0 mi SE 4.6 mph - N/A   Overcast
3:55 PM 39.2 °F 34.2 °F 33.8 °F 81% 30.11 in 10.0 mi SSE 6.9 mph - N/A   Mostly Cloudy
4:15 PM 39.2 °F 35.0 °F 33.8 °F 81% 30.10 in 7.0 mi SE 5.8 mph - N/A   Drizzle
4:35 PM 37.4 °F 33.8 °F 33.8 °F 87% 30.10 in 7.0 mi SSE 4.6 mph - N/A Rain Light Rain
4:55 PM 37.4 °F 33.8 °F 35.6 °F 93% 30.10 in 5.0 mi SE 4.6 mph - 0.01 in Rain Rain
5:15 PM 37.4 °F 32.8 °F 35.6 °F 93% 30.09 in 4.0 mi SE 5.8 mph - 0.02 in Rain Light Rain
5:35 PM 37.4 °F 33.8 °F 35.6 °F 93% 30.08 in 3.0 mi SE 4.6 mph - 0.02 in Rain Light Rain
6:15 PM 37.4 °F 33.8 °F 35.6 °F 93% 30.08 in 3.0 mi SE 4.6 mph - N/A Rain Light Rain
6:35 PM 37.4 °F 32.8 °F 35.6 °F 93% 30.07 in 5.0 mi SE 5.8 mph - N/A Rain Light Rain
6:55 PM 37.4 °F 32.1 °F 35.6 °F 93% 30.07 in 5.0 mi SSE 6.9 mph - N/A   Overcast
7:15 PM 37.4 °F 32.8 °F 35.6 °F 93% 30.07 in 5.0 mi SE 5.8 mph - N/A   Overcast
7:35 PM 37.4 °F 33.8 °F 35.6 °F 93% 30.06 in 5.0 mi SSE 4.6 mph - N/A Rain Rain
7:55 PM 37.4 °F 32.8 °F 35.6 °F 93% 30.05 in 4.0 mi SE 5.8 mph - 0.01 in Rain Rain
8:15 PM 37.4 °F 32.8 °F 35.6 °F 93% 30.05 in 4.0 mi SE 5.8 mph - N/A   Drizzle
8:35 PM 37.4 °F 32.1 °F 35.6 °F 93% 30.04 in 4.0 mi SE 6.9 mph - 0.01 in   Drizzle
8:55 PM 37.4 °F 33.8 °F 35.6 °F 93% 30.03 in 4.0 mi SE 4.6 mph - 0.01 in   Light Drizzle
9:35 PM 37.4 °F 34.9 °F 35.6 °F 93% 30.02 in 5.0 mi SSE 3.5 mph - N/A   Overcast
9:55 PM 37.4 °F 33.8 °F 35.6 °F 93% 30.02 in 4.0 mi SSE 4.6 mph - N/A   Overcast
10:15 PM 37.4 °F 32.1 °F 35.6 °F 93% 30.03 in 5.0 mi SSE 6.9 mph - N/A   Overcast
10:35 PM 37.4 °F 34.9 °F 35.6 °F 93% 30.02 in 4.0 mi SSE 3.5 mph - N/A   Drizzle
10:55 PM 37.4 °F 34.9 °F 35.6 °F 93% 30.03 in 3.0 mi South 3.5 mph - N/A Snow Light Snow
11:15 PM 37.4 °F 32.1 °F 37.4 °F 100% 30.02 in 2.0 mi SSE 6.9 mph - 0.01 in   Heavy Drizzle
11:35 PM 37.4 °F 32.8 °F 37.4 °F 100% 30.01 in 2.0 mi South 5.8 mph - 0.01 in Rain Heavy Rain
11:55 PM 37.4 °F 33.8 °F 37.4 °F 100% 30.01 in 2.5 mi South 4.6 mph - 0.02 in Rain Light Rain